Terug naar catalogus

IRIDIUM 33 DEB

ActiefPO
NORAD 37136·DEBRIS·🇺🇸 United States

Gelanceerd Sep 14, 1997 vanaf Baikonur Cosmodrome

Loading…

Volgende Passages (komende 24 uur)

TLE

VerouderendSource: Space-Track

Epoch: Sep 8, 2026, 04:29 UTC

1 37136U 97051XG  26251.18707864  .00000861  00000-0  32633-3 0  9994
2 37136  86.1720 218.9392 0074743 198.6623 161.1827 14.28474092683442

Volg IRIDIUM 33 DEB in realtime met AllMySat

Download on the App Store